Time,TemperatureF,DewpointF,PressureIn,WindDirection,WindDirectionDegrees,WindSpeedMPH,WindSpeedGustMPH,Humidity,HourlyPrecipIn,Conditions,Clouds,dailyrainin,SoftwareType,DateUTC
2013-02-15 00:05:00,14.6,11.7,30.09,South,184,0.0,9.0,88,0.00,,,0.01,Wunderground v.1.15,2013-02-15 07:05:00,
2013-02-15 00:10:00,14.5,11.6,30.09,South,184,0.0,9.0,88,0.00,,,0.01,Wunderground v.1.15,2013-02-15 07:10:00,
2013-02-15 00:15:00,14.5,11.6,30.09,South,184,0.0,9.0,88,0.00,,,0.01,Wunderground v.1.15,2013-02-15 07:15:00,
2013-02-15 00:20:00,14.4,11.5,30.09,South,184,0.0,9.0,88,0.00,,,0.01,Wunderground v.1.15,2013-02-15 07:20:00,
2013-02-15 00:25:00,14.3,11.4,30.08,South,184,0.0,9.0,88,0.00,,,0.01,Wunderground v.1.15,2013-02-15 07:25:00,
2013-02-15 00:30:00,14.2,11.3,30.09,South,184,0.0,9.0,88,0.00,,,0.01,Wunderground v.1.15,2013-02-15 07:30:00,
2013-02-15 00:35:00,14.0,10.8,30.08,South,184,0.0,9.0,87,0.00,,,0.01,Wunderground v.1.15,2013-02-15 07:35:00,
2013-02-15 00:45:00,13.6,10.5,30.08,South,184,0.0,9.0,87,0.00,,,0.01,Wunderground v.1.15,2013-02-15 07:45:00,
2013-02-15 00:55:00,12.8,9.4,30.08,South,184,0.0,9.0,86,0.00,,,0.01,Wunderground v.1.15,2013-02-15 07:55:00,
2013-02-15 01:00:00,12.2,8.6,30.08,South,184,0.0,9.0,85,0.00,,,0.01,Wunderground v.1.15,2013-02-15 08:00:00,
2013-02-15 01:05:00,11.5,7.9,30.08,South,184,0.0,9.0,85,0.00,,,0.00,Wunderground v.1.15,2013-02-15 08:05:00,
2013-02-15 01:10:00,10.8,7.2,30.08,South,184,0.0,9.0,85,0.00,,,0.00,Wunderground v.1.15,2013-02-15 08:10:00,
2013-02-15 01:20:00,9.6,6.0,30.08,South,184,0.0,9.0,85,0.00,,,0.00,Wunderground v.1.15,2013-02-15 08:20:00,
2013-02-15 01:25:00,9.4,6.3,30.08,South,186,0.0,9.0,87,0.00,,,0.00,Wunderground v.1.15,2013-02-15 08:25:00,
2013-02-15 01:30:00,9.5,6.9,30.08,South,188,0.0,9.0,89,0.00,,,0.00,Wunderground v.1.15,2013-02-15 08:30:00,
2013-02-15 01:40:00,9.3,6.5,30.08,South,188,0.0,9.0,88,0.00,,,0.00,Wunderground v.1.15,2013-02-15 08:40:00,
2013-02-15 01:45:00,9.4,6.8,30.08,South,188,0.0,9.0,89,0.00,,,0.00,Wunderground v.1.15,2013-02-15 08:45:00,
2013-02-15 01:55:00,9.8,7.2,30.07,South,188,0.0,9.0,89,0.00,,,0.00,Wunderground v.1.15,2013-02-15 08:55:00,
2013-02-15 02:00:00,9.9,7.3,30.08,South,188,0.0,9.0,89,0.00,,,0.00,Wunderground v.1.15,2013-02-15 09:00:00,
2013-02-15 02:05:00,9.8,7.0,30.07,South,188,0.0,9.0,88,0.00,,,0.00,Wunderground v.1.15,2013-02-15 09:05:00,
2013-02-15 02:10:00,9.9,7.1,30.08,South,188,0.0,9.0,88,0.00,,,0.00,Wunderground v.1.15,2013-02-15 09:10:00,
2013-02-15 02:15:00,10.2,7.6,30.07,South,188,0.0,9.0,89,0.00,,,0.00,Wunderground v.1.15,2013-02-15 09:15:00,
2013-02-15 02:20:00,10.3,7.5,30.08,South,188,0.0,9.0,88,0.00,,,0.00,Wunderground v.1.15,2013-02-15 09:20:00,
2013-02-15 02:25:00,10.3,7.5,30.08,South,188,0.0,9.0,88,0.00,,,0.00,Wunderground v.1.15,2013-02-15 09:25:00,
2013-02-15 02:30:00,10.5,7.6,30.07,South,188,0.0,9.0,88,0.00,,,0.00,Wunderground v.1.15,2013-02-15 09:30:00,
2013-02-15 02:35:00,11.0,8.1,30.07,South,188,0.0,9.0,88,0.00,,,0.00,Wunderground v.1.15,2013-02-15 09:35:00,
2013-02-15 02:40:00,11.2,8.1,30.08,South,188,0.0,9.0,87,0.00,,,0.00,Wunderground v.1.15,2013-02-15 09:40:00,
2013-02-15 02:50:00,11.7,8.1,30.08,South,189,0.0,9.0,85,0.00,,,0.00,Wunderground v.1.15,2013-02-15 09:50:00,
2013-02-15 02:55:00,12.1,8.2,30.07,WSW,238,0.0,9.0,84,0.00,,,0.00,Wunderground v.1.15,2013-02-15 09:55:00,
2013-02-15 03:05:00,12.5,7.8,30.07,NNW,330,0.0,9.0,81,0.00,,,0.00,Wunderground v.1.15,2013-02-15 10:05:00,
2013-02-15 03:10:00,12.9,8.2,30.07,NNW,330,0.0,9.0,81,0.00,,,0.00,Wunderground v.1.15,2013-02-15 10:10:00,
2013-02-15 03:15:00,13.4,8.1,30.07,NW,323,0.0,9.0,79,0.00,,,0.00,Wunderground v.1.15,2013-02-15 10:15:00,
2013-02-15 03:20:00,13.9,8.3,30.06,NW,323,0.0,9.0,78,0.00,,,0.00,Wunderground v.1.15,2013-02-15 10:20:00,
2013-02-15 03:25:00,14.4,8.2,30.07,NNW,329,0.0,9.0,76,0.00,,,0.00,Wunderground v.1.15,2013-02-15 10:25:00,
2013-02-15 03:30:00,14.8,8.0,30.06,WNW,302,0.0,9.0,74,0.00,,,0.00,Wunderground v.1.15,2013-02-15 10:30:00,
2013-02-15 03:35:00,15.1,7.7,30.06,WNW,302,0.0,9.0,72,0.00,,,0.00,Wunderground v.1.15,2013-02-15 10:35:00,
2013-02-15 03:40:00,15.1,7.4,30.06,NW,311,0.0,9.0,71,0.00,,,0.00,Wunderground v.1.15,2013-02-15 10:40:00,
2013-02-15 03:45:00,14.9,7.2,30.06,NW,311,0.0,9.0,71,0.00,,,0.00,Wunderground v.1.15,2013-02-15 10:45:00,
2013-02-15 03:50:00,14.8,7.1,30.06,NW,311,0.0,9.0,71,0.00,,,0.00,Wunderground v.1.15,2013-02-15 10:50:00,
2013-02-15 04:00:00,15.1,7.1,30.06,NW,310,0.0,9.0,70,0.00,,,0.00,Wunderground v.1.15,2013-02-15 11:00:00,
2013-02-15 04:05:00,15.2,6.8,30.06,North,10,0.0,9.0,69,0.00,,,0.00,Wunderground v.1.15,2013-02-15 11:05:00,
2013-02-15 04:10:00,15.3,6.6,30.06,NNW,341,0.0,9.0,68,0.00,,,0.00,Wunderground v.1.15,2013-02-15 11:10:00,
2013-02-15 04:15:00,15.5,6.5,30.06,NW,307,0.0,9.0,67,0.00,,,0.00,Wunderground v.1.15,2013-02-15 11:15:00,
2013-02-15 04:25:00,16.3,6.6,30.06,NNW,333,0.0,9.0,65,0.00,,,0.00,Wunderground v.1.15,2013-02-15 11:25:00,
2013-02-15 04:30:00,16.6,6.5,30.06,NW,319,0.0,9.0,64,0.00,,,0.00,Wunderground v.1.15,2013-02-15 11:30:00,
2013-02-15 04:35:00,16.6,6.2,30.06,NW,319,1.0,9.0,63,0.00,,,0.00,Wunderground v.1.15,2013-02-15 11:35:00,
2013-02-15 04:45:00,16.3,5.9,30.07,NNW,332,0.0,9.0,63,0.00,,,0.00,Wunderground v.1.15,2013-02-15 11:45:00,
2013-02-15 04:55:00,17.0,5.9,30.07,NNW,329,1.0,9.0,61,0.00,,,0.00,Wunderground v.1.15,2013-02-15 11:55:00,
2013-02-15 05:00:00,17.1,5.6,30.07,NW,316,0.0,9.0,60,0.00,,,0.00,Wunderground v.1.15,2013-02-15 12:00:00,
2013-02-15 05:05:00,17.1,5.6,30.07,NW,315,1.0,9.0,60,0.00,,,0.00,Wunderground v.1.15,2013-02-15 12:05:00,
2013-02-15 05:10:00,17.2,5.7,30.07,NW,325,1.0,1.0,60,0.00,,,0.00,Wunderground v.1.15,2013-02-15 12:10:00,
2013-02-15 05:15:00,17.3,5.8,30.07,WNW,286,1.0,9.0,60,0.00,,,0.00,Wunderground v.1.15,2013-02-15 12:15:00,
2013-02-15 05:20:00,17.2,5.7,30.07,NNW,348,1.0,9.0,60,0.00,,,0.00,Wunderground v.1.15,2013-02-15 12:20:00,
2013-02-15 05:25:00,17.2,5.3,30.08,North,360,1.0,9.0,59,0.00,,,0.00,Wunderground v.1.15,2013-02-15 12:25:00,
2013-02-15 05:30:00,17.2,5.3,30.08,NNW,344,1.0,1.0,59,0.00,,,0.00,Wunderground v.1.15,2013-02-15 12:30:00,
2013-02-15 05:35:00,17.3,5.4,30.08,NW,314,1.0,8.0,59,0.00,,,0.00,Wunderground v.1.15,2013-02-15 12:35:00,
2013-02-15 05:40:00,17.5,5.2,30.08,North,5,1.0,9.0,58,0.00,,,0.00,Wunderground v.1.15,2013-02-15 12:40:00,
2013-02-15 05:45:00,17.5,4.8,30.08,NNW,348,1.0,9.0,57,0.00,,,0.00,Wunderground v.1.15,2013-02-15 12:45:00,
2013-02-15 05:50:00,17.5,5.2,30.08,NNW,348,1.0,9.0,58,0.00,,,0.00,Wunderground v.1.15,2013-02-15 12:50:00,
2013-02-15 05:55:00,17.3,5.0,30.09,NNW,346,0.0,9.0,58,0.00,,,0.00,Wunderground v.1.15,2013-02-15 12:55:00,
2013-02-15 06:00:00,17.2,5.3,30.09,NW,321,0.0,9.0,59,0.00,,,0.00,Wunderground v.1.15,2013-02-15 13:00:00,
2013-02-15 06:05:00,17.2,4.9,30.09,West,271,1.0,9.0,58,0.00,,,0.00,Wunderground v.1.15,2013-02-15 13:05:00,
2013-02-15 06:10:00,17.3,5.0,30.09,North,355,1.0,9.0,58,0.00,,,0.00,Wunderground v.1.15,2013-02-15 13:10:00,
2013-02-15 06:15:00,17.5,4.8,30.09,WSW,252,1.0,9.0,57,0.00,,,0.00,Wunderground v.1.15,2013-02-15 13:15:00,
2013-02-15 06:20:00,17.7,5.0,30.09,NNW,342,1.0,9.0,57,0.00,,,0.00,Wunderground v.1.15,2013-02-15 13:20:00,
2013-02-15 06:25:00,17.7,5.0,30.09,NW,326,1.0,9.0,57,0.00,,,0.00,Wunderground v.1.15,2013-02-15 13:25:00,
2013-02-15 06:30:00,17.5,4.5,30.09,WNW,303,1.0,1.0,56,0.00,,,0.00,Wunderground v.1.15,2013-02-15 13:30:00,
2013-02-15 06:40:00,17.0,4.4,30.11,North,5,0.0,9.0,57,0.00,,,0.00,Wunderground v.1.15,2013-02-15 13:40:00,
2013-02-15 06:45:00,16.7,4.5,30.11,North,360,0.0,9.0,58,0.00,,,0.00,Wunderground v.1.15,2013-02-15 13:45:00,
2013-02-15 06:50:00,16.7,4.5,30.12,WNW,287,0.0,9.0,58,0.00,,,0.00,Wunderground v.1.15,2013-02-15 13:50:00,
2013-02-15 06:55:00,16.5,4.3,30.12,WNW,287,0.0,9.0,58,0.00,,,0.00,Wunderground v.1.15,2013-02-15 13:55:00,
2013-02-15 07:00:00,16.3,4.5,30.11,WNW,298,0.0,9.0,59,0.00,,,0.00,Wunderground v.1.15,2013-02-15 14:00:00,
2013-02-15 07:05:00,16.1,4.3,30.12,WNW,301,0.0,9.0,59,0.00,,,0.00,Wunderground v.1.15,2013-02-15 14:05:00,
2013-02-15 07:10:00,16.3,4.5,30.13,NNW,336,0.0,9.0,59,0.00,,,0.00,Wunderground v.1.15,2013-02-15 14:10:00,
2013-02-15 07:15:00,16.2,4.4,30.13,NNW,335,0.0,9.0,59,0.00,,,0.00,Wunderground v.1.15,2013-02-15 14:15:00,
2013-02-15 07:20:00,16.0,4.2,30.13,NNW,346,0.0,9.0,59,0.00,,,0.00,Wunderground v.1.15,2013-02-15 14:20:00,
2013-02-15 07:30:00,16.4,4.9,30.13,NNW,327,0.0,9.0,60,0.00,,,0.00,Wunderground v.1.15,2013-02-15 14:30:00,
2013-02-15 07:35:00,16.8,4.9,30.13,NNW,327,0.0,9.0,59,0.00,,,0.00,Wunderground v.1.15,2013-02-15 14:35:00,
2013-02-15 07:40:00,17.3,5.4,30.13,NNW,327,0.0,9.0,59,0.00,,,0.00,Wunderground v.1.15,2013-02-15 14:40:00,
2013-02-15 07:45:00,17.6,5.3,30.13,NW,319,0.0,9.0,58,0.00,,,0.00,Wunderground v.1.15,2013-02-15 14:45:00,
2013-02-15 07:50:00,18.1,5.8,30.13,NNW,331,0.0,9.0,58,0.00,,,0.00,Wunderground v.1.15,2013-02-15 14:50:00,
2013-02-15 07:55:00,18.5,5.8,30.14,NW,309,0.0,9.0,57,0.00,,,0.00,Wunderground v.1.15,2013-02-15 14:55:00,
2013-02-15 08:00:00,19.2,6.1,30.14,NNE,19,0.0,9.0,56,0.00,,,0.00,Wunderground v.1.15,2013-02-15 15:00:00,
2013-02-15 08:05:00,19.9,6.7,30.14,NNE,18,0.0,9.0,56,0.00,,,0.00,Wunderground v.1.15,2013-02-15 15:05:00,
2013-02-15 08:15:00,21.3,6.8,30.14,WNW,284,0.0,9.0,53,0.00,,,0.00,Wunderground v.1.15,2013-02-15 15:15:00,
2013-02-15 08:20:00,21.7,6.8,30.14,WNW,289,0.0,9.0,52,0.00,,,0.00,Wunderground v.1.15,2013-02-15 15:20:00,
2013-02-15 08:25:00,22.2,6.8,30.14,WNW,286,0.0,9.0,51,0.00,,,0.00,Wunderground v.1.15,2013-02-15 15:25:00,
2013-02-15 08:30:00,22.6,6.7,30.13,NW,323,0.0,9.0,50,0.00,,,0.00,Wunderground v.1.15,2013-02-15 15:30:00,
2013-02-15 08:35:00,23.0,6.7,30.14,West,275,0.0,9.0,49,0.00,,,0.00,Wunderground v.1.15,2013-02-15 15:35:00,
2013-02-15 08:45:00,23.6,6.3,30.13,WNW,295,0.0,9.0,47,0.00,,,0.00,Wunderground v.1.15,2013-02-15 15:45:00,
2013-02-15 08:50:00,24.0,6.2,30.14,North,355,0.0,9.0,46,0.00,,,0.00,Wunderground v.1.15,2013-02-15 15:50:00,
2013-02-15 08:55:00,24.2,5.9,30.14,West,279,1.0,9.0,45,0.00,,,0.00,Wunderground v.1.15,2013-02-15 15:55:00,
2013-02-15 09:00:00,24.2,5.9,30.14,NW,316,1.0,9.0,45,0.00,,,0.00,Wunderground v.1.15,2013-02-15 16:00:00,
2013-02-15 09:05:00,24.3,5.5,30.14,North,355,1.0,9.0,44,0.00,,,0.00,Wunderground v.1.15,2013-02-15 16:05:00,
2013-02-15 09:10:00,24.5,5.7,30.14,NNW,331,1.0,1.0,44,0.00,,,0.00,Wunderground v.1.15,2013-02-15 16:10:00,
2013-02-15 09:15:00,24.4,5.6,30.14,North,9,1.0,9.0,44,0.00,,,0.00,Wunderground v.1.15,2013-02-15 16:15:00,
2013-02-15 09:20:00,24.3,6.0,30.14,NNW,336,2.0,2.0,45,0.00,,,0.00,Wunderground v.1.15,2013-02-15 16:20:00,
2013-02-15 09:30:00,24.7,5.3,30.13,NNW,348,1.0,1.0,43,0.00,,,0.00,Wunderground v.1.15,2013-02-15 16:30:00,
2013-02-15 09:40:00,25.7,5.7,30.13,WSW,242,1.0,9.0,42,0.00,,,0.00,Wunderground v.1.15,2013-02-15 16:40:00,
2013-02-15 09:45:00,26.0,5.5,30.13,WNW,285,1.0,9.0,41,0.00,,,0.00,Wunderground v.1.15,2013-02-15 16:45:00,
2013-02-15 09:50:00,26.1,5.0,30.13,WNW,289,1.0,1.0,40,0.00,,,0.00,Wunderground v.1.15,2013-02-15 16:50:00,
2013-02-15 09:55:00,26.2,5.7,30.13,North,355,0.0,9.0,41,0.00,,,0.00,Wunderground v.1.15,2013-02-15 16:55:00,
2013-02-15 10:00:00,26.6,6.0,30.13,South,171,0.0,9.0,41,0.00,,,0.00,Wunderground v.1.15,2013-02-15 17:00:00,
2013-02-15 10:05:00,26.8,5.1,30.13,North,9,1.0,9.0,39,0.00,,,0.00,Wunderground v.1.15,2013-02-15 17:05:00,
2013-02-15 10:15:00,27.4,5.7,30.13,West,277,1.0,9.0,39,0.00,,,0.00,Wunderground v.1.15,2013-02-15 17:15:00,
2013-02-15 10:20:00,27.6,5.8,30.13,North,355,1.0,9.0,39,0.00,,,0.00,Wunderground v.1.15,2013-02-15 17:20:00,
2013-02-15 10:25:00,27.5,5.7,30.13,NNW,336,1.0,9.0,39,0.00,,,0.00,Wunderground v.1.15,2013-02-15 17:25:00,
2013-02-15 10:30:00,27.9,5.5,30.13,NW,325,1.0,1.0,38,0.00,,,0.00,Wunderground v.1.15,2013-02-15 17:30:00,
2013-02-15 10:35:00,28.0,5.6,30.13,SSW,210,1.0,9.0,38,0.00,,,0.00,Wunderground v.1.15,2013-02-15 17:35:00,
2013-02-15 10:45:00,28.2,4.6,30.13,NW,322,2.0,9.0,36,0.00,,,0.00,Wunderground v.1.15,2013-02-15 17:45:00,
2013-02-15 10:50:00,28.5,4.9,30.13,NNW,336,1.0,9.0,36,0.00,,,0.00,Wunderground v.1.15,2013-02-15 17:50:00,
2013-02-15 10:55:00,28.7,5.7,30.13,NNW,348,1.0,9.0,37,0.00,,,0.00,Wunderground v.1.15,2013-02-15 17:55:00,
2013-02-15 11:05:00,28.8,3.3,30.13,NW,322,2.0,9.0,33,0.00,,,0.00,Wunderground v.1.15,2013-02-15 18:05:00,
2013-02-15 11:10:00,29.0,4.7,30.13,SE,126,1.0,9.0,35,0.00,,,0.00,Wunderground v.1.15,2013-02-15 18:10:00,
2013-02-15 11:20:00,28.4,4.2,30.13,SSW,204,2.0,2.0,35,0.00,,,0.00,Wunderground v.1.15,2013-02-15 18:20:00,
2013-02-15 11:30:00,28.9,4.6,30.13,West,263,1.0,1.0,35,0.00,,,0.00,Wunderground v.1.15,2013-02-15 18:30:00,
2013-02-15 11:35:00,29.4,4.4,30.12,ENE,60,1.0,9.0,34,0.00,,,0.00,Wunderground v.1.15,2013-02-15 18:35:00,
2013-02-15 11:45:00,30.1,4.4,30.12,NNW,345,1.0,4.0,33,0.00,,,0.00,Wunderground v.1.15,2013-02-15 18:45:00,
2013-02-15 11:50:00,30.1,5.1,30.13,WNW,294,2.0,9.0,34,0.00,,,0.00,Wunderground v.1.15,2013-02-15 18:50:00,
2013-02-15 11:55:00,29.4,4.4,30.13,South,190,3.0,9.0,34,0.00,,,0.00,Wunderground v.1.15,2013-02-15 18:55:00,
2013-02-15 12:00:00,29.4,3.8,30.12,North,355,2.0,2.0,33,0.00,,,0.00,Wunderground v.1.15,2013-02-15 19:00:00,
2013-02-15 12:05:00,29.9,4.9,30.12,North,360,2.0,3.0,34,0.00,,,0.00,Wunderground v.1.15,2013-02-15 19:05:00,
2013-02-15 12:10:00,29.8,4.1,30.11,NNW,344,2.0,2.0,33,0.00,,,0.00,Wunderground v.1.15,2013-02-15 19:10:00,
2013-02-15 12:20:00,30.1,3.1,30.12,West,275,1.0,9.0,31,0.00,,,0.00,Wunderground v.1.15,2013-02-15 19:20:00,
2013-02-15 12:25:00,29.7,4.7,30.11,NE,34,2.0,9.0,34,0.00,,,0.00,Wunderground v.1.15,2013-02-15 19:25:00,
2013-02-15 12:30:00,30.2,5.8,30.11,NW,321,2.0,2.0,35,0.00,,,0.00,Wunderground v.1.15,2013-02-15 19:30:00,
2013-02-15 12:35:00,30.5,4.1,30.12,NW,325,1.0,9.0,32,0.00,,,0.00,Wunderground v.1.15,2013-02-15 19:35:00,
2013-02-15 12:40:00,30.7,2.9,30.11,NNW,336,2.0,9.0,30,0.00,,,0.00,Wunderground v.1.15,2013-02-15 19:40:00,
2013-02-15 12:50:00,31.0,3.8,30.10,WNW,291,2.0,2.0,31,0.00,,,0.00,Wunderground v.1.15,2013-02-15 19:50:00,
2013-02-15 12:55:00,31.4,2.8,30.10,West,273,1.0,5.0,29,0.00,,,0.00,Wunderground v.1.15,2013-02-15 19:55:00,
2013-02-15 13:00:00,31.2,3.3,30.11,North,360,2.0,9.0,30,0.00,,,0.00,Wunderground v.1.15,2013-02-15 20:00:00,
2013-02-15 13:05:00,30.7,2.9,30.11,NNW,331,3.0,9.0,30,0.00,,,0.00,Wunderground v.1.15,2013-02-15 20:05:00,
2013-02-15 13:15:00,30.4,1.9,30.10,WSW,247,1.0,3.0,29,0.00,,,0.00,Wunderground v.1.15,2013-02-15 20:15:00,
2013-02-15 13:25:00,31.5,2.1,30.10,North,360,1.0,9.0,28,0.00,,,0.00,Wunderground v.1.15,2013-02-15 20:25:00,
2013-02-15 13:30:00,31.2,1.8,30.10,WSW,238,2.0,2.0,28,0.00,,,0.00,Wunderground v.1.15,2013-02-15 20:30:00,
2013-02-15 13:35:00,30.3,-0.5,30.10,NNW,339,2.0,9.0,26,0.00,,,0.00,Wunderground v.1.15,2013-02-15 20:35:00,
2013-02-15 13:40:00,30.0,1.5,30.11,SW,227,2.0,9.0,29,0.00,,,0.00,Wunderground v.1.15,2013-02-15 20:40:00,
2013-02-15 13:45:00,30.2,-2.3,30.11,North,355,2.0,9.0,24,0.00,,,0.00,Wunderground v.1.15,2013-02-15 20:45:00,
2013-02-15 13:50:00,30.0,-1.6,30.11,North,5,3.0,3.0,25,0.00,,,0.00,Wunderground v.1.15,2013-02-15 20:50:00,
2013-02-15 13:55:00,30.2,-1.5,30.11,West,271,3.0,9.0,25,0.00,,,0.00,Wunderground v.1.15,2013-02-15 20:55:00,
2013-02-15 14:00:00,30.9,-1.7,30.11,North,350,2.0,2.0,24,0.00,,,0.00,Wunderground v.1.15,2013-02-15 21:00:00,
2013-02-15 14:05:00,31.1,0.1,30.11,NNE,13,2.0,3.0,26,0.00,,,0.00,Wunderground v.1.15,2013-02-15 21:05:00,
2013-02-15 14:15:00,31.9,-0.9,30.11,West,280,1.0,4.0,24,0.00,,,0.00,Wunderground v.1.15,2013-02-15 21:15:00,
2013-02-15 14:20:00,31.4,-0.4,30.11,NNE,22,1.0,1.0,25,0.00,,,0.00,Wunderground v.1.15,2013-02-15 21:20:00,
2013-02-15 14:25:00,31.3,0.3,30.12,NW,319,1.0,9.0,26,0.00,,,0.00,Wunderground v.1.15,2013-02-15 21:25:00,
2013-02-15 14:35:00,30.9,0.8,30.13,NNW,338,2.0,9.0,27,0.00,,,0.00,Wunderground v.1.15,2013-02-15 21:35:00,
2013-02-15 14:40:00,31.0,0.9,30.14,NNE,30,2.0,2.0,27,0.00,,,0.00,Wunderground v.1.15,2013-02-15 21:40:00,
2013-02-15 14:45:00,31.2,1.0,30.14,SSW,192,1.0,9.0,27,0.00,,,0.00,Wunderground v.1.15,2013-02-15 21:45:00,
2013-02-15 14:50:00,31.5,1.3,30.14,NNE,22,1.0,1.0,27,0.00,,,0.00,Wunderground v.1.15,2013-02-15 21:50:00,
2013-02-15 15:00:00,31.4,-2.2,30.15,NE,38,2.0,9.0,23,0.00,,,0.00,Wunderground v.1.15,2013-02-15 22:00:00,
2013-02-15 15:05:00,31.1,-4.4,30.15,South,189,3.0,9.0,21,0.00,,,0.00,Wunderground v.1.15,2013-02-15 22:05:00,
2013-02-15 15:10:00,31.0,-2.5,30.15,North,350,3.0,3.0,23,0.00,,,0.00,Wunderground v.1.15,2013-02-15 22:10:00,
2013-02-15 15:15:00,31.0,-1.6,30.15,WNW,299,2.0,9.0,24,0.00,,,0.00,Wunderground v.1.15,2013-02-15 22:15:00,
2013-02-15 15:20:00,30.9,-0.9,30.15,WSW,244,1.0,9.0,25,0.00,,,0.00,Wunderground v.1.15,2013-02-15 22:20:00,
2013-02-15 15:30:00,30.8,-0.1,30.15,South,182,1.0,9.0,26,0.00,,,0.00,Wunderground v.1.15,2013-02-15 22:30:00,
2013-02-15 15:40:00,30.3,-0.5,30.16,NNW,336,2.0,2.0,26,0.00,,,0.00,Wunderground v.1.15,2013-02-15 22:40:00,
2013-02-15 15:45:00,30.1,-0.7,30.16,SW,217,1.0,9.0,26,0.00,,,0.00,Wunderground v.1.15,2013-02-15 22:45:00,
2013-02-15 15:50:00,29.9,-0.9,30.16,North,11,1.0,1.0,26,0.00,,,0.00,Wunderground v.1.15,2013-02-15 22:50:00,
2013-02-15 15:55:00,30.1,-3.3,30.16,NNW,338,1.0,2.0,23,0.00,,,0.00,Wunderground v.1.15,2013-02-15 22:55:00,
2013-02-15 16:00:00,30.0,-1.6,30.16,NE,46,0.0,9.0,25,0.00,,,0.00,Wunderground v.1.15,2013-02-15 23:00:00,
2013-02-15 16:10:00,29.8,-2.7,30.16,North,10,0.0,9.0,24,0.00,,,0.00,Wunderground v.1.15,2013-02-15 23:10:00,
2013-02-15 16:15:00,29.5,-2.1,30.17,SW,232,1.0,14.0,25,0.00,,,0.00,Wunderground v.1.15,2013-02-15 23:15:00,
2013-02-15 16:20:00,29.4,0.3,30.16,North,5,2.0,2.0,28,0.00,,,0.00,Wunderground v.1.15,2013-02-15 23:20:00,
2013-02-15 16:30:00,28.9,-1.0,30.16,NNW,327,1.0,1.0,27,0.00,,,0.00,Wunderground v.1.15,2013-02-15 23:30:00,
2013-02-15 16:35:00,28.7,-1.1,30.16,West,271,0.0,9.0,27,0.00,,,0.00,Wunderground v.1.15,2013-02-15 23:35:00,
2013-02-15 16:40:00,28.3,0.8,30.17,NNW,336,0.0,9.0,30,0.00,,,0.00,Wunderground v.1.15,2013-02-15 23:40:00,
2013-02-15 16:55:00,27.8,-0.4,30.17,WNW,302,0.0,9.0,29,0.00,,,0.00,Wunderground v.1.15,2013-02-15 23:55:00,
2013-02-15 17:00:00,27.6,0.2,30.17,WSW,256,0.0,9.0,30,0.00,,,0.00,Wunderground v.1.15,2013-02-16 00:00:00,
2013-02-15 17:05:00,27.5,2.1,30.17,West,280,1.0,9.0,33,0.00,,,0.00,Wunderground v.1.15,2013-02-16 00:05:00,
2013-02-15 17:10:00,27.3,1.3,30.17,WSW,244,1.0,9.0,32,0.00,,,0.00,Wunderground v.1.15,2013-02-16 00:10:00,
2013-02-15 17:15:00,27.2,1.2,30.17,WNW,298,1.0,9.0,32,0.00,,,0.00,Wunderground v.1.15,2013-02-16 00:15:00,
2013-02-15 17:20:00,27.0,1.7,30.17,NNW,343,0.0,9.0,33,0.00,,,0.00,Wunderground v.1.15,2013-02-16 00:20:00,
2013-02-15 17:25:00,26.9,0.9,30.17,NNW,338,0.0,9.0,32,0.00,,,0.00,Wunderground v.1.15,2013-02-16 00:25:00,
2013-02-15 17:30:00,26.6,1.3,30.18,NNW,338,1.0,1.0,33,0.00,,,0.00,Wunderground v.1.15,2013-02-16 00:30:00,
2013-02-15 17:40:00,26.4,0.5,30.18,NNW,348,1.0,1.0,32,0.00,,,0.00,Wunderground v.1.15,2013-02-16 00:40:00,
2013-02-15 17:45:00,26.2,1.6,30.18,NW,322,0.0,9.0,34,0.00,,,0.00,Wunderground v.1.15,2013-02-16 00:45:00,
2013-02-15 17:55:00,26.1,2.1,30.17,NNW,344,1.0,9.0,35,0.00,,,0.00,Wunderground v.1.15,2013-02-16 00:55:00,
2013-02-15 18:00:00,25.8,1.9,30.18,West,279,1.0,1.0,35,0.00,,,0.00,Wunderground v.1.15,2013-02-16 01:00:00,
2013-02-15 18:05:00,25.6,1.7,30.18,SW,234,0.0,9.0,35,0.00,,,0.00,Wunderground v.1.15,2013-02-16 01:05:00,
2013-02-15 18:10:00,25.3,1.4,30.18,NNW,327,1.0,9.0,35,0.00,,,0.00,Wunderground v.1.15,2013-02-16 01:10:00,
2013-02-15 18:15:00,25.2,2.5,30.18,NNW,331,1.0,9.0,37,0.00,,,0.00,Wunderground v.1.15,2013-02-16 01:15:00,
2013-02-15 18:20:00,25.1,1.2,30.18,NNW,342,1.0,1.0,35,0.00,,,0.00,Wunderground v.1.15,2013-02-16 01:20:00,
2013-02-15 18:25:00,25.1,1.8,30.18,NNW,340,1.0,9.0,36,0.00,,,0.00,Wunderground v.1.15,2013-02-16 01:25:00,
2013-02-15 18:30:00,25.1,1.2,30.18,NW,323,1.0,1.0,35,0.00,,,0.00,Wunderground v.1.15,2013-02-16 01:30:00,
2013-02-15 18:35:00,24.9,1.7,30.18,NNW,342,1.0,9.0,36,0.00,,,0.00,Wunderground v.1.15,2013-02-16 01:35:00,
2013-02-15 18:40:00,24.8,2.2,30.19,WSW,254,1.0,9.0,37,0.00,,,0.00,Wunderground v.1.15,2013-02-16 01:40:00,
2013-02-15 18:45:00,24.6,2.6,30.18,NW,324,1.0,9.0,38,0.00,,,0.00,Wunderground v.1.15,2013-02-16 01:45:00,
2013-02-15 18:50:00,24.4,2.4,30.18,WNW,295,1.0,9.0,38,0.00,,,0.00,Wunderground v.1.15,2013-02-16 01:50:00,
2013-02-15 18:55:00,24.4,2.4,30.19,WSW,258,2.0,9.0,38,0.00,,,0.00,Wunderground v.1.15,2013-02-16 01:55:00,
2013-02-15 19:00:00,24.2,2.2,30.19,NE,51,1.0,1.0,38,0.00,,,0.00,Wunderground v.1.15,2013-02-16 02:00:00,
2013-02-15 19:05:00,24.0,2.6,30.19,NW,306,1.0,9.0,39,0.00,,,0.00,Wunderground v.1.15,2013-02-16 02:05:00,
2013-02-15 19:10:00,24.0,2.6,30.18,NNW,335,1.0,9.0,39,0.00,,,0.00,Wunderground v.1.15,2013-02-16 02:10:00,
2013-02-15 19:15:00,23.9,2.5,30.19,NW,325,1.0,9.0,39,0.00,,,0.00,Wunderground v.1.15,2013-02-16 02:15:00,
2013-02-15 19:25:00,24.2,2.2,30.18,NW,325,2.0,9.0,38,0.00,,,0.00,Wunderground v.1.15,2013-02-16 02:25:00,
2013-02-15 19:30:00,24.2,2.8,30.19,NNW,348,2.0,9.0,39,0.00,,,0.00,Wunderground v.1.15,2013-02-16 02:30:00,
2013-02-15 19:35:00,23.9,2.5,30.19,NNW,330,2.0,9.0,39,0.00,,,0.00,Wunderground v.1.15,2013-02-16 02:35:00,
2013-02-15 19:40:00,23.9,2.5,30.19,NW,308,2.0,9.0,39,0.00,,,0.00,Wunderground v.1.15,2013-02-16 02:40:00,
2013-02-15 19:45:00,23.6,2.8,30.19,NW,311,1.0,9.0,40,0.00,,,0.00,Wunderground v.1.15,2013-02-16 02:45:00,
2013-02-15 19:50:00,23.2,2.9,30.19,NW,310,1.0,9.0,41,0.00,,,0.00,Wunderground v.1.15,2013-02-16 02:50:00,
2013-02-15 19:55:00,22.9,3.2,30.19,North,355,1.0,9.0,42,0.00,,,0.00,Wunderground v.1.15,2013-02-16 02:55:00,
2013-02-15 20:00:00,22.5,3.3,30.19,South,188,1.0,1.0,43,0.00,,,0.00,Wunderground v.1.15,2013-02-16 03:00:00,
2013-02-15 20:10:00,21.9,3.3,30.20,NW,315,0.0,9.0,44,0.00,,,0.00,Wunderground v.1.15,2013-02-16 03:10:00,
2013-02-15 20:15:00,21.8,3.2,30.20,NW,326,0.0,9.0,44,0.00,,,0.00,Wunderground v.1.15,2013-02-16 03:15:00,
2013-02-15 20:20:00,21.9,3.3,30.20,NW,323,1.0,1.0,44,0.00,,,0.00,Wunderground v.1.15,2013-02-16 03:20:00,
2013-02-15 20:25:00,22.1,3.0,30.20,NW,304,1.0,3.0,43,0.00,,,0.00,Wunderground v.1.15,2013-02-16 03:25:00,
2013-02-15 20:30:00,22.5,2.8,30.21,NE,44,1.0,1.0,42,0.00,,,0.00,Wunderground v.1.15,2013-02-16 03:30:00,
2013-02-15 20:35:00,22.7,3.0,30.21,NNE,15,1.0,9.0,42,0.00,,,0.00,Wunderground v.1.15,2013-02-16 03:35:00,
2013-02-15 20:40:00,22.6,2.9,30.21,NNE,24,1.0,1.0,42,0.00,,,0.00,Wunderground v.1.15,2013-02-16 03:40:00,
2013-02-15 20:45:00,22.5,2.8,30.21,NW,321,0.0,2.0,42,0.00,,,0.00,Wunderground v.1.15,2013-02-16 03:45:00,
2013-02-15 20:50:00,22.4,3.2,30.21,WNW,292,1.0,1.0,43,0.00,,,0.00,Wunderground v.1.15,2013-02-16 03:50:00,
2013-02-15 20:55:00,22.3,3.2,30.21,NW,307,1.0,9.0,43,0.00,,,0.00,Wunderground v.1.15,2013-02-16 03:55:00,
2013-02-15 21:00:00,22.2,3.6,30.21,WNW,289,1.0,1.0,44,0.00,,,0.00,Wunderground v.1.15,2013-02-16 04:00:00,
2013-02-15 21:15:00,21.9,3.3,30.21,SW,219,1.0,9.0,44,0.00,,,0.00,Wunderground v.1.15,2013-02-16 04:15:00,
2013-02-15 21:20:00,21.9,3.3,30.21,WNW,284,1.0,9.0,44,0.00,,,0.00,Wunderground v.1.15,2013-02-16 04:20:00,
2013-02-15 21:25:00,21.8,3.2,30.21,West,267,0.0,9.0,44,0.00,,,0.00,Wunderground v.1.15,2013-02-16 04:25:00,
2013-02-15 21:30:00,21.7,3.1,30.20,North,5,0.0,9.0,44,0.00,,,0.00,Wunderground v.1.15,2013-02-16 04:30:00,
2013-02-15 21:35:00,21.6,3.0,30.20,North,5,0.0,9.0,44,0.00,,,0.00,Wunderground v.1.15,2013-02-16 04:35:00,
2013-02-15 21:40:00,21.4,3.3,30.20,North,5,0.0,9.0,45,0.00,,,0.00,Wunderground v.1.15,2013-02-16 04:40:00,
2013-02-15 21:45:00,21.2,3.6,30.20,NW,316,0.0,9.0,46,0.00,,,0.00,Wunderground v.1.15,2013-02-16 04:45:00,
2013-02-15 21:50:00,20.9,3.3,30.20,NNW,338,0.0,9.0,46,0.00,,,0.00,Wunderground v.1.15,2013-02-16 04:50:00,
2013-02-15 21:55:00,20.6,3.1,30.20,NNW,338,0.0,9.0,46,0.00,,,0.00,Wunderground v.1.15,2013-02-16 04:55:00,
2013-02-15 22:00:00,20.5,3.0,30.20,NW,317,0.0,9.0,46,0.00,,,0.00,Wunderground v.1.15,2013-02-16 05:00:00,
2013-02-15 22:10:00,20.7,3.2,30.20,NNW,340,0.0,9.0,46,0.00,,,0.00,Wunderground v.1.15,2013-02-16 05:10:00,
2013-02-15 22:15:00,20.9,3.8,30.20,NNW,327,0.0,9.0,47,0.00,,,0.00,Wunderground v.1.15,2013-02-16 05:15:00,
2013-02-15 22:20:00,21.2,3.1,30.20,NW,304,0.0,9.0,45,0.00,,,0.00,Wunderground v.1.15,2013-02-16 05:20:00,
2013-02-15 22:25:00,21.4,3.3,30.19,WNW,288,0.0,9.0,45,0.00,,,0.00,Wunderground v.1.15,2013-02-16 05:25:00,
2013-02-15 22:30:00,21.8,3.2,30.20,NNW,348,1.0,1.0,44,0.00,,,0.00,Wunderground v.1.15,2013-02-16 05:30:00,
2013-02-15 22:35:00,22.2,3.6,30.19,NNW,329,1.0,9.0,44,0.00,,,0.00,Wunderground v.1.15,2013-02-16 05:35:00,
2013-02-15 22:40:00,22.4,3.7,30.19,NNW,335,1.0,1.0,44,0.00,,,0.00,Wunderground v.1.15,2013-02-16 05:40:00,
2013-02-15 22:45:00,22.5,3.8,30.18,NW,319,1.0,9.0,44,0.00,,,0.00,Wunderground v.1.15,2013-02-16 05:45:00,
2013-02-15 22:50:00,22.6,3.9,30.18,North,5,1.0,1.0,44,0.00,,,0.00,Wunderground v.1.15,2013-02-16 05:50:00,
2013-02-15 22:55:00,22.6,3.9,30.19,NNW,336,2.0,2.0,44,0.00,,,0.00,Wunderground v.1.15,2013-02-16 05:55:00,
2013-02-15 23:00:00,22.7,3.5,30.19,NNW,335,2.0,2.0,43,0.00,,,0.00,Wunderground v.1.15,2013-02-16 06:00:00,
2013-02-15 23:05:00,22.9,3.7,30.19,NNW,339,2.0,9.0,43,0.00,,,0.00,Wunderground v.1.15,2013-02-16 06:05:00,
2013-02-15 23:10:00,23.0,3.8,30.19,North,9,2.0,9.0,43,0.00,,,0.00,Wunderground v.1.15,2013-02-16 06:10:00,
2013-02-15 23:15:00,23.1,3.9,30.18,North,350,2.0,9.0,43,0.00,,,0.00,Wunderground v.1.15,2013-02-16 06:15:00,
2013-02-15 23:20:00,23.2,4.0,30.18,NNW,346,2.0,2.0,43,0.00,,,0.00,Wunderground v.1.15,2013-02-16 06:20:00,
2013-02-15 23:25:00,23.2,4.0,30.18,WNW,288,1.0,9.0,43,0.00,,,0.00,Wunderground v.1.15,2013-02-16 06:25:00,
2013-02-15 23:30:00,23.2,4.0,30.18,North,355,1.0,9.0,43,0.00,,,0.00,Wunderground v.1.15,2013-02-16 06:30:00,
2013-02-15 23:35:00,23.3,4.1,30.18,NW,311,1.0,9.0,43,0.00,,,0.00,Wunderground v.1.15,2013-02-16 06:35:00,
2013-02-15 23:40:00,23.4,4.2,30.18,NNW,346,1.0,1.0,43,0.00,,,0.00,Wunderground v.1.15,2013-02-16 06:40:00,
2013-02-15 23:45:00,23.3,4.1,30.18,NNW,331,1.0,9.0,43,0.00,,,0.00,Wunderground v.1.15,2013-02-16 06:45:00,
2013-02-15 23:55:00,23.4,4.7,30.17,NNW,328,1.0,9.0,44,0.00,,,0.00,Wunderground v.1.15,2013-02-16 06:55:00,